Lapse_Rate
5.7 5.5 5.6 5.8 5.8 5.9 5.7 5.4 5.2 3.8 3.6 4.3 3.3 3.3 3.4 4.5 6.4 6.7 6.6 6.9 7.2 7.7 7.8 8.1 8.1 8.4 8.3 7.8 7.4 7.3 6.9 6.5 6.2 7.4 7.7 7.5 7.6 7.6 7.6 7.8 8.1 8.8 8.2 7.4
5.6 5.5 5.5 5.7 6.1 6.2 5.7 5.6 4.7 3.8 3.8 3.6 3.6 3.7 4.2 5.7 6.7 7.0 6.8 6.6 6.8 6.8 6.8 6.8 7.3 7.6 7.6 7.6 7.1 7.0 6.8 6.8 6.1 7.0 7.3 7.3 7.5 7.7 8.1 8.3 8.7 8.5 7.3 7.2
5.4 5.4 5.5 5.7 6.1 6.1 5.7 5.1 4.4 3.7 3.7 3.6 3.7 3.9 4.1 6.4 6.9 6.7 6.9 6.8 7.0 6.9 7.0 6.6 6.7 6.8 6.9 6.7 6.7 6.5 5.6 5.7 5.7 5.8 5.8 6.2 6.4 7.7 8.0 8.4 8.4 7.7 6.7 6.3
5.4 5.4 5.5 5.9 6.1 6.0 5.6 4.9 4.1 3.5 3.7 4.0 3.7 4.0 4.5 6.4 6.7 6.7 6.9 7.0 6.7 6.5 6.5 7.0 6.9 6.7 6.5 6.5 5.9 5.6 5.5 5.7 5.5 5.7 5.5 7.2 5.4 6.0 6.7 6.7 6.7 6.3 6.1 5.6
5.3 5.3 5.5 6.0 6.0 5.7 5.1 5.5 4.7 4.0 4.0 4.1 4.5 4.2 4.7 6.3 6.2 6.2 7.0 7.0 6.9 6.8 6.6 6.4 6.2 6.2 6.2 6.0 5.8 5.8 5.6 5.7 6.2 6.3 6.3 6.4 5.7 5.5 5.9 6.0 6.0 5.9 5.1 5.4
5.2 5.2 5.5 5.7 5.6 5.2 5.3 5.3 4.4 4.3 4.0 4.3 4.4 3.8 4.8 6.2 6.5 6.5 6.7 6.8 6.9 6.8 6.5 6.3 5.9 6.0 5.9 5.7 5.8 5.8 6.0 5.7 6.0 6.1 6.2 6.5 6.2 4.8 4.9 5.2 4.7 4.7 4.6 4.7
5.1 5.2 5.4 5.6 5.2 5.1 4.9 4.6 4.3 4.5 3.7 3.8 3.5 4.2 5.3 6.3 6.4 6.3 6.9 7.1 6.6 6.3 6.7 6.6 5.9 5.6 5.6 5.4 5.8 6.1 6.1 6.1 6.0 5.8 6.9 5.1 4.9 5.4 4.7 4.5 4.5 4.9 5.3 5.2
5.0 5.0 5.3 5.2 4.9 4.7 4.6 4.3 4.5 4.5 4.0 3.8 4.4 4.7 5.0 6.2 6.6 6.9 6.7 6.5 6.2 6.5 7.0 6.7 5.8 5.7 6.0 5.9 5.4 5.6 6.2 6.1 5.6 5.4 4.9 5.0 5.1 5.1 4.4 4.4 4.2 4.4 4.8 5.0
5.0 4.8 5.0 4.8 4.7 4.5 4.3 4.3 4.4 4.5 4.4 3.3 4.2 5.0 5.3 6.2 6.7 6.6 6.7 6.4 6.7 6.7 6.2 5.6 5.0 4.8 5.1 5.0 5.7 5.4 5.7 6.2 5.6 5.0 4.3 3.8 4.2 4.8 4.8 4.9 4.3 4.2 4.6 5.0
4.8 4.7 4.8 4.5 4.4 4.2 4.0 4.4 4.3 4.5 4.3 3.9 4.6 4.9 4.7 5.4 6.5 6.7 6.8 6.9 7.0 6.6 5.8 5.1 4.8 4.8 4.7 4.8 4.7 4.9 5.6 5.2 4.7 4.9 4.2 4.2 4.5 5.1 5.1 4.3 4.1 4.5 4.8 4.9
4.7 4.6 4.5 4.4 4.3 4.2 3.8 4.3 4.2 4.3 4.2 4.1 4.2 5.1 5.2 5.5 6.1 6.3 6.5 6.9 7.0 6.2 5.5 5.0 4.6 4.7 4.7 4.5 4.4 4.7 4.6 4.5 4.3 4.7 4.6 4.2 4.6 4.7 4.3 4.0 4.5 5.1 5.4 5.3
4.7 4.4 4.3 4.3 4.1 4.0 4.1 4.4 4.3 4.2 4.3 4.2 4.3 4.9 5.0 4.7 5.1 5.9 6.4 6.5 6.4 5.8 5.3 5.5 5.0 4.4 4.4 4.5 4.2 4.4 4.4 4.3 4.4 4.7 4.4 4.5 4.7 4.6 4.4 4.5 5.2 5.4 5.2 5.3
4.7 4.2 4.1 4.2 4.1 4.1 4.0 4.4 4.1 4.2 4.1 3.9 4.2 4.9 4.9 5.1 5.1 5.6 6.4 6.7 6.4 6.7 6.5 5.9 5.3 4.6 5.3 4.7 4.2 4.6 4.3 4.6 4.3 4.6 4.5 4.6 4.6 4.6 4.8 4.9 4.7 4.9 5.0 5.1
4.5 4.2 4.1 4.1 3.9 4.1 4.2 4.6 4.2 4.1 4.2 4.0 3.9 4.2 4.9 4.8 4.7 5.0 5.4 6.1 6.7 6.9 6.9 6.6 5.5 5.0 5.3 4.9 4.8 4.9 4.5 5.0 4.8 4.5 4.6 4.5 4.6 4.6 4.5 4.6 4.5 4.8 4.9 4.9
4.4 4.3 4.1 4.0 4.0 4.1 4.0 4.2 4.0 4.0 4.0 4.1 4.0 4.0 4.3 4.8 4.8 4.8 5.1 5.5 6.4 6.9 7.0 6.6 5.8 5.3 5.5 5.2 5.4 5.0 5.2 5.0 5.2 4.9 4.8 4.5 4.8 4.9 4.8 4.7 4.7 4.5 4.6 4.9
4.4 4.4 4.2 4.0 4.1 4.1 4.1 4.0 3.9 4.0 4.1 4.3 3.9 3.9 4.2 4.9 5.0 5.0 5.1 5.1 5.5 6.1 6.8 6.8 6.6 6.3 6.2 5.7 5.4 5.0 5.0 5.2 5.0 5.1 5.1 5.0 4.8 4.8 4.8 4.8 4.7 4.8 4.8 4.8
4.4 4.4 4.2 4.1 4.2 4.3 4.4 4.2 4.1 3.9 4.0 4.2 4.1 3.9 4.1 4.5 5.0 5.2 5.0 5.1 5.3 5.7 6.1 6.1 6.5 6.8 6.5 5.9 5.7 5.4 5.3 5.2 5.2 5.3 5.4 5.6 5.5 5.2 5.1 5.1 4.9 4.8 4.8 4.9
4.4 4.3 4.2 4.2 4.2 4.4 4.4 4.4 4.2 4.2 4.2 4.2 4.2 4.1 4.0 4.5 4.7 5.3 5.3 5.3 5.6 5.5 5.4 5.8 6.2 6.3 6.3 6.1 6.1 5.9 5.6 5.7 5.5 5.3 5.3 5.2 5.3 5.4 5.3 5.4 5.4 5.3 5.2 5.2
4.4 4.3 4.2 4.2 4.2 4.4 4.4 4.4 4.3 4.4 4.4 4.4 4.4 4.3 4.3 4.4 4.7 5.0 5.1 5.4 5.3 5.4 5.6 5.7 5.8 6.2 6.2 6.0 6.1 6.0 6.1 6.2 6.0 6.0 6.1 5.8 5.8 5.6 5.4 5.2 5.2 5.3 5.1 5.0
4.4 4.3 4.3 4.3 4.3 4.4 4.3 4.5 4.4 4.4 4.7 4.6 4.6 4.6 4.5 4.6 4.6 4.9 5.1 5.4 5.4 5.4 5.4 5.7 5.8 5.9 5.9 6.1 6.2 6.3 6.4 6.3 6.4 6.4 6.5 6.3 6.2 6.0 5.8 5.8 5.4 5.1 5.2 5.0
4.4 4.3 4.3 4.2 4.3 4.4 4.3 4.4 4.4 4.5 4.6 4.7 4.7 4.7 4.8 4.8 4.9 4.9 5.1 5.3 5.3 5.4 5.4 5.4 5.7 6.0 5.9 5.9 6.0 6.1 6.3 6.4 6.4 6.4 6.4 6.3 6.3 6.6 6.5 6.2 6.0 5.8 5.6 5.4
4.2 4.3 4.3 4.2 4.3 4.4 4.3 4.3 4.4 4.5 4.6 4.7 4.7 4.8 4.8 4.9 5.0 5.0 5.1 5.2 5.2 5.2 5.5 5.6 6.0 6.1 6.1 6.3 6.5 6.2 6.2 6.2 6.5 6.6 6.7 6.7 6.7 6.7 6.6 6.6 6.6 6.7 6.6 6.2
4.0 4.1 4.1 4.2 4.4 4.3 4.3 4.3 4.4 4.6 4.7 4.9 4.8 4.8 4.9 4.9 5.1 5.0 5.1 5.2 5.2 5.3 5.5 5.9 6.2 6.1 6.0 6.2 6.0 6.1 6.4 6.8 6.9 6.8 6.7 6.7 6.8 6.8 6.8 6.8 6.6 6.6 6.7 6.9
3.9 4.0 4.0 4.3 4.3 4.4 4.3 4.2 4.2 4.5 4.6 4.7 4.7 4.8 4.8 4.9 5.0 5.1 5.1 5.0 5.2 5.3 5.5 6.1 6.1 6.0 5.9 5.9 6.0 6.3 6.3 6.5 7.0 7.0 6.9 7.0 7.0 7.1 7.0 6.9 6.9 6.8 6.8 7.0
3.8 4.0 4.1 4.2 4.5 4.5 4.3 4.1 4.2 4.3 4.2 4.4 4.5 4.7 4.5 4.7 4.9 5.1 4.9 4.9 5.1 5.4 6.0 6.1 6.0 5.9 6.0 6.2 6.3 6.4 6.7 7.0 6.9 6.9 6.8 6.9 7.1 7.2 7.1 7.0 6.9 6.8 7.1 7.1
3.6 4.0 4.1 4.4 4.5 4.5 4.4 4.2 3.7 3.9 3.9 4.0 4.0 4.3 4.6 4.7 4.8 4.7 5.0 4.9 5.4 5.4 5.5 5.5 5.6 5.6 5.7 6.1 6.4 6.7 6.7 6.8 6.8 6.7 6.8 7.1 7.1 7.1 7.2 7.1 6.9 6.8 6.9 7.1
3.3 4.0 4.4 4.6 4.5 4.4 4.3 4.2 3.8 3.8 3.7 3.8 3.9 4.2 4.6 4.5 4.4 4.5 4.7 5.2 5.3 5.1 5.2 5.2 5.3 5.3 5.5 5.7 6.1 6.3 6.4 6.4 6.5 6.5 6.7 6.9 7.0 7.0 7.2 7.2 7.1 6.9 6.9 7.2
Wind_Speed
20 21 21 21 20 15 6 3 4 5 4 7 2 4 5 9 11 10 5 6 8 4 11 5 3 4 4 7 2 3 4 4 5 5 10 5 2 4 10 3 4 2 4 1
21 22 24 23 16 8 3 3 2 3 6 4 5 6 7 4 8 7 9 6 7 2 4 3 4 5 5 1 1 1 4 3 6 3 0 6 5 1 3 5 2 3 3 4
21 24 26 27 26 5 4 3 3 4 4 1 5 6 6 12 7 2 9 5 5 3 3 6 4 6 6 4 1 5 2 3 2 4 8 3 14 21 15 4 3 3 4 9
23 25 28 30 29 9 4 4 1 3 3 7 8 6 7 12 10 5 7 4 12 4 4 7 5 6 9 9 9 8 2 3 4 6 10 35 24 24 27 22 18 7 10 8
23 24 29 31 30 15 4 4 3 4 3 5 7 9 7 12 10 5 11 8 15 4 3 3 7 3 2 3 5 4 3 2 1 18 10 29 26 30 24 26 23 9 10 6
22 24 28 29 31 12 4 2 3 5 8 5 5 8 7 9 11 5 10 10 7 5 5 8 6 6 7 5 4 2 3 3 4 4 11 7 15 22 13 15 13 9 9 13
20 23 27 29 30 14 3 1 3 4 3 4 4 9 10 10 11 4 9 12 8 9 15 2 1 3 4 4 14 3 4 5 1 2 4 9 6 16 11 8 20 18 15 18
19 23 25 27 28 16 5 2 4 3 2 3 9 14 13 8 10 7 6 9 6 14 6 4 5 4 6 6 12 16 7 2 5 4 8 4 13 17 9 6 15 21 16 17
19 22 23 26 27 20 6 3 2 4 4 5 6 5 6 5 6 10 7 16 7 16 6 5 7 6 6 7 15 15 17 18 5 4 7 8 10 20 23 2 10 19 18 18
18 20 20 22 24 17 6 2 3 4 4 4 2 4 3 4 4 3 5 9 10 7 6 4 5 5 6 7 8 9 7 6 15 10 6 4 18 23 11 10 5 17 18 16
16 19 19 20 23 21 6 1 9 4 3 4 3 3 4 5 3 2 7 4 10 5 8 4 3 4 5 3 6 7 9 4 5 5 5 6 18 10 9 6 8 12 14 16
16 17 17 18 23 23 7 3 8 2 4 4 3 4 3 3 3 2 5 2 4 2 4 4 2 3 4 6 5 11 6 8 6 6 4 2 6 10 8 9 9 10 14 16
14 14 15 16 18 19 8 1 3 3 3 4 5 5 7 5 1 4 4 4 3 7 2 2 1 7 3 6 8 7 10 8 4 1 6 8 8 7 9 6 13 13 13 16
12 12 13 14 15 16 10 3 5 3 3 3 5 4 6 8 8 5 2 1 5 4 5 4 3 4 4 6 7 10 4 4 4 13 11 4 10 4 5 8 10 15 16 16
10 10 12 12 13 12 14 11 9 5 4 3 3 7 7 6 7 9 9 7 5 4 3 3 2 2 4 3 2 4 2 1 3 2 3 1 5 7 6 10 12 13 14 17
8 9 10 11 12 5 4 4 4 16 2 3 2 4 6 5 8 8 7 4 4 4 3 0 3 2 3 3 2 4 3 1 3 1 0 1 2 5 5 5 7 10 12 14
7 8 8 10 12 7 3 4 3 11 2 3 2 3 5 4 5 4 4 5 2 3 2 3 2 4 4 3 2 5 4 5 4 1 2 3 3 3 4 6 6 7 7 8
6 6 7 7 5 4 3 4 6 5 3 3 2 2 4 4 2 3 2 4 4 5 1 2 2 3 3 3 2 2 1 4 6 6 4 2 2 6 6 4 4 7 7 7
5 5 6 4 4 3 2 7 4 5 3 2 2 4 3 4 2 1 4 3 3 3 2 1 3 3 2 3 1 3 5 2 1 4 6 6 5 6 6 5 6 6 6 6
4 6 4 3 2 1 3 6 4 4 3 3 1 1 0 3 2 2 2 2 1 1 3 1 3 2 3 5 4 1 4 5 5 5 5 5 6 5 6 6 5 4 4 5
3 2 1 3 0 3 3 3 3 2 3 1 2 3 3 2 3 2 1 2 1 2 4 3 1 2 4 5 5 5 3 3 5 4 2 3 4 3 5 5 5 5 5 5
5 2 0 3 3 3 5 2 3 2 4 1 4 3 3 1 3 3 2 1 2 1 1 3 3 4 6 6 7 6 5 5 2 0 2 4 3 1 2 3 4 3 4 5
3 3 3 3 3 5 4 4 3 1 3 3 2 1 2 3 3 2 2 2 3 1 3 2 4 3 5 7 5 5 5 4 3 2 2 4 3 5 3 4 5 1 4 4
2 3 1 3 2 3 4 4 4 4 4 5 4 2 2 0 2 2 2 3 2 3 1 4 3 6 6 5 5 6 4 1 1 1 1 3 5 6 5 5 4 3 5 3
2 3 3 4 4 2 4 4 2 2 5 5 3 3 3 1 2 0 1 3 2 4 4 3 4 6 6 6 5 6 5 4 4 2 2 3 3 2 4 5 4 4 5 3
1 3 1 3 1 3 2 2 2 1 4 3 3 3 3 2 3 2 5 3 5 4 4 4 3 5 6 6 6 6 7 6 5 4 3 3 2 4 5 6 4 4 3 3
3 3 3 3 1 3 3 3 2 1 3 3 3 4 5 1 0 3 4 4 4 4 3 3 6 7 7 7 6 5 4 5 4 3 2 3 3 2 3 2 2 4 4 1
Wind_Direction
13 8 5 4 360 6 67 83 59 306 32 37 36 32 351 332 334 329 338 289 307 341 317 293 297 261 265 250 248 309 235 271 279 261 290 310 250 183 176 125 301 57 125 315
15 10 6 3 12 19 110 84 61 332 57 64 3 331 350 307 338 21 355 304 11 292 287 316 250 275 328 48 133 319 305 303 310 162 40 16 21 333 195 163 99 52 76 292
18 13 9 7 13 70 90 86 39 332 36 47 57 350 342 352 330 79 346 304 325 299 289 307 285 326 10 272 247 277 330 285 303 19 296 232 53 36 23 122 85 69 38 331
23 17 14 14 17 60 91 42 248 189 335 6 29 7 341 0 358 6 3 312 354 311 303 332 332 345 338 329 7 340 42 269 253 221 78 70 51 50 49 48 35 43 0 332
28 23 21 19 22 45 73 99 97 23 9 3 34 10 332 357 340 329 348 342 330 267 279 305 304 349 272 275 307 321 332 305 7 121 110 66 51 28 35 40 25 5 2 357
31 29 28 24 27 48 76 344 25 91 2 7 23 0 339 332 351 297 2 322 318 304 286 286 260 151 270 272 264 274 286 311 346 50 340 348 38 23 18 49 26 353 15 333
34 34 31 29 33 51 99 44 94 78 13 43 6 355 355 339 334 292 336 355 3 295 309 270 111 162 222 15 43 255 302 329 15 4 346 51 330 8 1 50 24 6 357 348
38 38 33 32 33 46 74 15 76 102 50 292 9 11 5 344 347 349 319 343 288 324 2 35 22 357 5 350 12 11 10 326 36 73 55 111 19 350 335 342 24 360 348 344
41 42 36 33 33 32 65 38 122 92 104 338 313 343 351 349 325 343 335 346 328 11 24 33 34 35 345 351 351 357 21 42 76 24 69 24 325 334 327 287 17 350 352 2
44 44 38 34 32 28 67 5 32 84 104 288 33 26 294 305 327 256 287 334 349 31 13 38 44 34 347 17 15 349 353 2 39 32 84 72 344 341 337 55 318 323 341 344
46 42 37 33 32 27 71 277 20 103 111 290 331 314 15 346 27 52 299 10 10 358 24 36 330 26 12 48 25 345 26 44 13 22 62 27 341 355 43 329 327 332 349 356
49 39 34 33 35 24 47 29 359 83 96 218 283 283 270 232 221 166 348 134 322 232 38 9 43 19 9 1 54 15 61 49 50 38 70 274 324 24 6 15 6 7 14 8
53 37 32 32 37 23 43 108 333 51 53 349 30 349 317 10 316 160 79 346 328 33 166 141 26 65 352 25 17 14 23 26 49 73 29 22 6 10 7 19 18 11 16 17
57 38 34 32 36 23 34 73 340 83 103 97 300 336 337 338 29 54 122 156 40 65 48 64 68 73 20 43 58 55 357 4 18 62 39 7 40 13 328 11 17 22 20 22
57 36 35 27 23 27 85 73 37 60 127 171 275 317 322 359 39 23 31 46 60 36 37 46 43 95 68 358 47 25 347 342 66 96 293 93 323 342 8 31 22 15 18 16
56 33 36 22 13 80 61 29 358 19 63 83 34 283 348 345 31 30 28 34 36 67 99 270 8 339 98 64 35 300 346 66 164 160 300 81 354 358 17 36 23 20 22 23
56 31 42 29 39 64 103 169 255 341 21 72 24 357 311 338 24 13 14 19 32 88 40 30 48 3 71 75 77 273 305 345 11 78 149 18 18 15 23 53 31 22 25 25
50 38 33 20 71 90 37 351 11 1 86 72 97 281 9 13 355 6 5 16 14 5 137 8 38 354 41 43 307 235 275 51 53 62 77 162 20 41 23 46 34 33 26 25
43 27 35 57 43 45 254 337 7 48 116 123 94 134 228 350 357 314 7 55 18 300 70 313 74 332 33 213 138 18 15 81 115 47 41 36 30 9 16 31 41 58 32 45
69 56 51 13 260 218 51 15 22 12 336 41 137 152 290 89 17 356 28 21 193 48 263 62 78 250 249 189 169 124 47 52 46 29 11 13 20 0 6 13 11 49 68 52
41 65 136 236 292 55 37 19 86 307 7 224 228 165 138 302 98 214 171 213 289 69 271 112 326 281 234 198 181 182 169 79 54 67 37 29 40 21 31 12 9 23 57 63
169 142 123 30 42 41 79 303 311 181 222 211 149 202 156 240 109 85 329 90 32 251 317 70 311 257 216 183 202 203 181 149 123 314 350 11 48 85 37 355 331 9 83 76
44 50 60 67 310 49 140 205 269 268 184 192 136 38 127 28 54 60 63 57 247 90 45 230 223 247 201 213 200 190 214 206 229 306 38 18 351 314 319 315 326 73 118 86
95 113 20 158 275 237 195 191 205 236 152 136 119 88 110 198 63 148 99 247 62 15 300 234 250 208 203 188 161 137 179 203 319 203 332 354 354 329 328 324 310 179 150 129
135 115 218 212 224 239 233 236 250 263 138 113 78 53 95 360 94 156 71 25 261 216 231 233 221 193 162 169 176 188 198 231 239 206 240 277 328 321 308 304 312 128 137 130
190 221 258 241 88 309 323 268 298 13 121 78 71 111 73 229 162 157 203 191 223 247 217 227 182 179 181 189 200 205 210 208 204 220 228 255 272 269 295 336 101 133 137 140
227 247 219 176 178 204 215 194 234 144 88 138 114 144 201 108 97 235 186 208 218 226 224 199 191 188 200 201 202 220 203 199 208 198 206 227 248 28 37 76 147 171 152 126